Cape Mele, Italy

7:31 AM CET on February 28, 2017 (GMT +0100)
Capo Mele

Weather History for LIMU - March, 2013

Change the Weather History Date:

Monday, March 4, 2013

  Actual Average Record
Temperature  
Mean Temperature 53 °F -  
Max Temperature 60 °F 57 °F 66 °F (1997)
Min Temperature 46 °F 47 °F 35 °F (2005)
Degree Days  
Heating Degree Days 12    
Growing Degree Days 3 (Base 50)    
Moisture  
Dew Point 46 °F    
Average Humidity 82    
Maximum Humidity 94    
Minimum Humidity 60    
Precipitation  
Precipitation 0.00 in 0.09 in - ()
Sea Level Pressure  
Sea Level Pressure 30.09 in    
Wind  
Wind Speed 7 mph ()    
Max Wind Speed 22 mph    
Max Gust Speed -    
Visibility 6.0 miles    
Events      
Averages and records for this station are not official NWS values.
T = Trace of Precipitation, MM = Missing Value Source: Averaged Metar Reports

Daily Weather History Graph

Daily Weather History Graph

Search for Another Location

Airport or City:

Trip Planner

Search our weather history database for the weather conditions in past years. The results will help you decide how hot, cold, wet, or windy it might be!

Date:

Astronomy

Mar. 04, 2013 Rise Set
Actual Time 6:59 AM CET 6:19 PM CET
Civil Twilight 6:30 AM CET 6:48 PM CET
Nautical Twilight 5:56 AM CET 7:21 PM CET
Astronomical Twilight 5:23 AM CET 7:55 PM CET
Moon 12:58 AM CET (3/4) 10:38 AM CET (3/4)
Length of Visible Light 12h 18m
Length of Day
11h 20m
Waning Gibbous, 55% of the Moon is Illuminated
Mar 4
Waning Gibbous
Mar 4
Last Quarter
Mar 11
New
Mar 19
First Quarter
Mar 27
Full

Hourly Weather History & Observations

Time (CET) Temp. Windchill Dew Point Humidity Pressure Visibility Wind Dir Wind Speed Gust Speed Precip Events Conditions
12:55 AM 48.2 °F - 46.4 °F 93% 30.06 in - North 1.2 mph - N/A   Clear
1:55 AM 48.2 °F - 46.4 °F 93% 30.06 in - NNE 2.3 mph - N/A   Clear
2:55 AM 48.2 °F - 44.6 °F 87% 30.06 in - NE 5.8 mph - N/A   Clear
3:55 AM 48.2 °F - 44.6 °F 87% 30.06 in - NE 4.6 mph - N/A   Clear
4:55 AM 46.4 °F 44.3 °F 42.8 °F 87% 30.06 in - NNE 4.6 mph - N/A   Clear
5:55 AM 46.4 °F 45.2 °F 42.8 °F 87% 30.06 in - NNE 3.5 mph - N/A   Clear
6:55 AM 46.4 °F 44.3 °F 42.8 °F 87% 30.06 in - NNE 4.6 mph - N/A   Clear
7:00 AM 47 °F - 43 °F 82% 30.09 in 6 mi NNE 4.6 mph - -   Clear
7:55 AM 46.4 °F 42.9 °F 42.8 °F 87% 30.06 in - NNE 6.9 mph - N/A   Clear
8:55 AM 51.8 °F - 48.2 °F 88% 30.09 in - NE 8.1 mph - N/A   Clear
9:55 AM 51.8 °F - 44.6 °F 76% 30.12 in - NE 8.1 mph - N/A   Clear
10:55 AM 55.4 °F - 48.2 °F 77% 30.12 in - NE 17.3 mph - N/A   Clear
11:55 AM 59.0 °F - 48.2 °F 67% 30.12 in - NE 11.5 mph - N/A   Clear
1:00 PM 59 °F - 49 °F 60% 30.13 in 6 mi ENE 11.5 mph - -   Clear
1:55 PM 60.8 °F - 50.0 °F 68% 30.09 in - ENE 19.6 mph - N/A   Clear
2:55 PM 59.0 °F - 48.2 °F 67% 30.09 in - NE 12.7 mph - N/A   Clear
3:55 PM 59.0 °F - 48.2 °F 67% 30.09 in - North 9.2 mph - N/A   Clear
4:55 PM 55.4 °F - 48.2 °F 77% 30.09 in - NE 12.7 mph - N/A   Clear
5:55 PM 53.6 °F - 46.4 °F 77% 30.09 in - NNE 12.7 mph - N/A   Clear
6:55 PM 50.0 °F - 46.4 °F 87% 30.09 in - NNE 13.8 mph - N/A   Clear
7:00 PM 50 °F - 46 °F 81% 30.13 in 6 mi NNE 13.8 mph - -  
7:55 PM 50.0 °F - 46.4 °F 87% 30.12 in - NNE 13.8 mph - N/A   Clear
8:55 PM 48.2 °F - 46.4 °F 93% 30.12 in - North 12.7 mph - N/A   Clear
9:55 PM 50.0 °F - 48.2 °F 94% 30.12 in - North 12.7 mph - N/A   Clear
10:55 PM 50.0 °F - 46.4 °F 87% 30.15 in - NE 9.2 mph - N/A   Clear
11:55 PM 50.0 °F - 42.8 °F 76% 30.12 in - NNE 21.9 mph - N/A   Clear